Location: Clyde
(45.1830°S, 169.3170°E)
Time: 02:51:56
(UTC+13:00)

H-2A R/B - Pass Details

Date: 24 January 2019
Orbit: 734 x 836 km, 98.3° (Epoch: 23 February)

Event Time Altitude Azimuth Distance (km) Brightness Sun altitude
Rises 22:34:22 0° 160° (SSE) 3,271 5.6 -11.1°
Reaches altitude 10° 22:36:51 10° 153° (SSE) 2,322 4.7 -11.5°
Maximum altitude 22:41:39 40° 83° (E) 1,102 2.5 -12.1°
Enters shadow 22:45:38 14° 16° (NNE) 2,011 3.7 -12.6°
